Location: Moscow
(38.8570°N, 84.2291°W)
Time: 14:12:23
(UTC+00:00)

Cosmos 1782 Rocket - Visible Passes

Search period start: 14 February 2026 00:00
Search period end: 24 February 2026 00:00
Orbit: 601 x 624 km, 82.5° (Epoch: 13 February)

Date Brightness Start Highest point End Pass type
(mag) Time Alt. Az. Time Alt. Az. Time Alt. Az.
14 Feb 5.7 10:32:18 10° SSE 10:36:02 28° E 10:39:47 10° NNE visible
15 Feb 4.5 10:46:56 10° SSE 10:51:10 50° E 10:55:28 10° NNE visible
16 Feb 3.5 11:02:00 10° S 11:06:23 87° W 11:10:51 10° N visible
17 Feb 6.7 09:42:18 10° ESE 09:44:26 13° E 09:46:37 10° NE visible
17 Feb 3.8 11:17:27 10° SSW 11:21:41 46° W 11:25:58 10° N visible
18 Feb 5.8 09:55:58 10° SE 09:59:29 24° E 10:03:02 10° NE visible
18 Feb 4.5 11:33:22 10° SW 11:37:04 26° WNW 11:40:48 10° NNW visible
19 Feb 4.7 10:10:27 10° SSE 10:14:36 43° E 10:18:48 10° NNE visible
19 Feb 5.2 11:49:58 10° WSW 11:52:33 15° WNW 11:55:09 10° NW visible
20 Feb 3.6 10:25:33 11° S 10:29:48 81° E 10:34:15 10° N visible
21 Feb 6.7 09:06:26 10° ESE 09:07:55 12° E 09:09:24 10° ENE visible
21 Feb 3.6 10:43:17 32° SW 10:45:04 55° W 10:49:26 10° N visible
22 Feb 5.9 09:22:49 21° E 09:22:56 21° E 09:26:14 10° NE visible
22 Feb 4.3 10:59:54 29° W 11:00:26 30° WNW 11:04:22 10° NNW visible
23 Feb 5.2 09:39:02 32° ENE 09:39:02 32° ENE 09:42:06 10° NNE visible
23 Feb 5.0 11:16:06 17° WNW 11:16:06 17° WNW 11:18:52 10° NNW visible
